Flag for Germany Weather past 2 weeks in Ansbach, Bavaria, Germany

Now
59 °F

Passing clouds.


Feels Like: 59 °F
Forecast: 49 / 63 °F
Wind: 1 mph from Northwest

Location: Ansbach / Katterbach

Current Time: Aug 22, 2014 at 9:43:56 PM

Latest Report: Aug 22, 2014 at 8:58 PM


Visibility: N/A

Pressure: 30.01 "Hg

Humidity: 55%

Dew point: 43 °F

Location of AnsbachLocation

Historic Weather in Ansbach — Graph

°F

Ansbach temperature yesterday

Maximum temperature yesterday: 66 °F (at 3:58 PM)
Minimum temperature yesterday: 50 °F (at 6:58 AM)
Average temperature yesterday: 58 °F

Past Weeks' High & Low Weather Summary

 TemperatureHumidityPressure
High82 °F (Aug 10, 2:58 PM)100% (Aug 15, 1:58 AM)30.17 "Hg (Aug 15, 1:58 AM)
Low45 °F (Aug 20, 6:58 AM)40% (Aug 21, 4:58 PM)29.70 "Hg (Aug 13, 3:01 PM)
Average60 °F74%29.97 "Hg
* Reported Aug 7 7:58 PM — Aug 22 7:58 PM, Ansbach, Weather by CustomWeather, © 2014

Note: Actual official high and low records may vary slightly from our data, if they occured in-between our weather recording intervals... More about our weather records

Advertising

Ansbach weather history for previous 24 hours

 ConditionsComfort  
Time TempWeatherWind HumidityBarometerVisibility
7:58 PM
Aug 22
60 °FPassing clouds.6 mph59%30.01 "HgN/A
6:58 PM64 °FPartly sunny.13 mph50%29.99 "HgN/A
5:58 PM65 °FOvercast.12 mph43%30.00 "HgN/A
4:58 PM65 °FPartly sunny.8 mph41%29.99 "HgN/A
3:58 PM65 °FBroken clouds.7 mph41%30.00 "HgN/A
2:58 PM64 °FCloudy.7 mph42%30.02 "HgN/A
1:58 PM65 °FSunny.8 mph42%30.03 "HgN/A
12:58 PM61 °FOvercast.7 mph48%30.04 "HgN/A
11:58 AM61 °FOvercast.5 mph52%30.05 "HgN/A
10:58 AM61 °FBroken clouds.5 mph52%30.05 "HgN/A
9:58 AM57 °FPartly sunny.3 mph65%30.05 "HgN/A
8:58 AM52 °FMore clouds than sun.3 mph77%30.05 "HgN/A
7:58 AM50 °FMostly cloudy.3 mph84%30.05 "HgN/A
6:58 AM48 °FMostly cloudy.2 mph87%30.04 "HgN/A
5:58 AM47 °FPassing clouds.5 mph93%30.04 "HgN/A
4:58 AM49 °FClear.3 mph83%30.03 "HgN/A
3:58 AM50 °FPassing clouds.3 mph82%30.05 "HgN/A
2:58 AM51 °FPassing clouds.2 mph77%30.05 "HgN/A
1:58 AM52 °FMostly cloudy.2 mph79%30.06 "HgN/A
12:58 AM53 °FPassing clouds.No wind75%30.07 "HgN/A
11:58 PM
Aug 21
54 °FPartly cloudy.2 mph72%30.07 "HgN/A
10:58 PM55 °FPassing clouds.2 mph68%30.07 "HgN/A
9:58 PM56 °FPassing clouds.2 mph62%30.07 "HgN/A
Weather by CustomWeather, © 2014

See weather overviewHow to use our weather pages